Bay City, TX

12:44 PM CST on February 25, 2017 (GMT -0600)
Bay City

Weather History for KBYY - October, 2012

Change the Weather History Date:

Monday, October 15, 2012

  Actual Average (KLBX) Record (KLBX)
Temperature  
Mean Temperature 76 °F -  
Max Temperature 87 °F 78 °F 91 °F (2016)
Min Temperature 64 °F 60 °F 48 °F (2004)
Cooling Degree Days 10    
Growing Degree Days 26 (Base 50)    
Moisture  
Dew Point 64 °F    
Average Humidity 75    
Maximum Humidity 100    
Minimum Humidity 35    
Precipitation  
Precipitation 0.00 in - - ()
Sea Level Pressure  
Sea Level Pressure 30.02 in    
Wind  
Wind Speed 4 mph (NNE)    
Max Wind Speed 12 mph    
Max Gust Speed 16 mph    
Visibility 10 miles    
Events      
Averages and records for this station are not official NWS values.
T = Trace of Precipitation, MM = Missing Value Source: NWS Daily Summary

Daily Weather History Graph

Daily Weather History Graph

Search for Another Location

Airport or City:

Trip Planner

Search our weather history database for the weather conditions in past years. The results will help you decide how hot, cold, wet, or windy it might be!

Date:

Astronomy

Oct. 15, 2012 Rise Set
Actual Time 7:24 AM CDT 6:52 PM CDT
Civil Twilight 7:01 AM CDT 7:16 PM CDT
Nautical Twilight 6:33 AM CDT 7:44 PM CDT
Astronomical Twilight 6:05 AM CDT 8:11 PM CDT
Moon 7:31 AM CDT (10/15) 7:00 PM CDT (10/15)
Length of Visible Light 12h 15m
Length of Day
11h 28m
New Moon, 0% of the Moon is Illuminated
Oct 15
New Moon
Oct 21
First Quarter
Oct 29
Full
Nov 6
Last Quarter
Nov 13
New

Hourly Weather History & Observations

Time (CDT) Temp. Heat Index Dew Point Humidity Pressure Visibility Wind Dir Wind Speed Gust Speed Precip Events Conditions
12:15 AM 72.9 °F - 72.9 °F 100% 30.03 in 10.0 mi Calm Calm - N/A   Clear
12:35 AM 72.5 °F - 72.5 °F 100% 30.04 in 7.0 mi Calm Calm - N/A   Scattered Clouds
12:55 AM 72.1 °F - 72.1 °F 100% 30.04 in 7.0 mi NNW 3.5 mph - N/A   Mostly Cloudy
1:15 AM 73.0 °F - 73.0 °F 100% 30.03 in 7.0 mi Calm Calm - N/A   Overcast
1:35 AM 73.0 °F - 73.0 °F 100% 30.04 in 10.0 mi NW 4.6 mph - N/A   Overcast
1:55 AM 73.8 °F - 73.8 °F 100% 30.03 in 10.0 mi NW 4.6 mph - N/A   Overcast
2:15 AM 73.2 °F - 73.2 °F 100% 30.03 in 10.0 mi NW 3.5 mph - N/A   Scattered Clouds
2:35 AM 72.7 °F - 72.7 °F 100% 30.03 in 10.0 mi Calm Calm - N/A   Clear
2:55 AM 72.5 °F - 72.5 °F 100% 30.02 in 10.0 mi Calm Calm - N/A   Scattered Clouds
3:15 AM 72.5 °F - 72.5 °F 100% 30.02 in 10.0 mi Calm Calm - N/A   Scattered Clouds
3:35 AM 72.1 °F - 72.1 °F 100% 30.03 in 10.0 mi NW 3.5 mph - N/A   Mostly Cloudy
3:55 AM 71.8 °F - 71.8 °F 100% 30.03 in 10.0 mi NNW 4.6 mph - N/A   Overcast
4:15 AM 71.8 °F - 71.8 °F 100% 30.02 in 10.0 mi NNW 3.5 mph - N/A   Mostly Cloudy
4:35 AM 69.8 °F - 69.8 °F 100% 30.02 in 10.0 mi Calm Calm - N/A   Mostly Cloudy
4:55 AM 70.7 °F - 70.7 °F 100% 30.02 in 10.0 mi North 5.8 mph - N/A   Scattered Clouds
5:15 AM 69.6 °F - 69.6 °F 100% 30.02 in 10.0 mi North 6.9 mph - N/A   Clear
5:35 AM 69.1 °F - 69.1 °F 100% 30.02 in 10.0 mi North 4.6 mph - N/A   Clear
5:55 AM 68.5 °F - 68.5 °F 100% 30.03 in 10.0 mi North 5.8 mph - N/A   Clear
6:15 AM 67.6 °F - 67.6 °F 100% 30.03 in 10.0 mi North 5.8 mph - N/A   Clear
6:35 AM 67.1 °F - 67.1 °F 100% 30.03 in 10.0 mi NNW 5.8 mph - N/A   Clear
6:55 AM 66.2 °F - 66.2 °F 100% 30.04 in 10.0 mi North 6.9 mph - N/A   Clear
7:15 AM 66.2 °F - 66.2 °F 100% 30.03 in 10.0 mi North 5.8 mph - N/A   Clear
7:35 AM 66.9 °F - 66.9 °F 100% 30.04 in 10.0 mi North 5.8 mph - N/A   Clear
7:55 AM 66.9 °F - 66.9 °F 100% 30.04 in 10.0 mi North 5.8 mph - N/A   Clear
8:15 AM 67.6 °F - 67.1 °F 98% 30.05 in 10.0 mi North 6.9 mph - N/A   Clear
8:35 AM 68.5 °F - 66.0 °F 92% 30.05 in 10.0 mi NNE 6.9 mph - N/A   Clear
8:55 AM 70.2 °F - 63.3 °F 79% 30.06 in 10.0 mi NNE 8.1 mph - N/A   Clear
9:15 AM 71.6 °F - 62.4 °F 73% 30.06 in 10.0 mi NNE 9.2 mph - N/A   Clear
9:35 AM 72.9 °F - 62.2 °F 69% 30.06 in 10.0 mi NE 10.4 mph 16.1 mph N/A   Clear
9:55 AM 75.0 °F - 62.2 °F 64% 30.07 in 10.0 mi NE 9.2 mph - N/A   Clear
10:15 AM 77.5 °F - 61.2 °F 57% 30.07 in 10.0 mi NE 11.5 mph - N/A   Clear
10:35 AM 77.7 °F - 60.6 °F 55% 30.07 in 10.0 mi ENE 8.1 mph - N/A   Clear
10:55 AM 79.3 °F - 60.8 °F 53% 30.07 in 10.0 mi ENE 9.2 mph - N/A   Clear
11:15 AM 80.6 °F 81.5 °F 60.8 °F 51% 30.06 in 10.0 mi NE 8.1 mph - N/A   Clear
11:35 AM 81.3 °F 82.1 °F 60.8 °F 50% 30.06 in 10.0 mi ENE 9.2 mph - N/A   Clear
11:55 AM 82.4 °F 82.9 °F 60.6 °F 48% 30.06 in 10.0 mi NE 9.2 mph - N/A   Clear
12:15 PM 82.9 °F 83.2 °F 60.3 °F 46% 30.06 in 10.0 mi ENE 8.1 mph - N/A   Clear
12:35 PM 82.0 °F 82.5 °F 60.8 °F 48% 30.05 in 10.0 mi ENE 6.9 mph - N/A   Clear
12:55 PM 82.2 °F 82.7 °F 61.0 °F 48% 30.04 in 10.0 mi NE 6.9 mph - N/A   Clear
1:15 PM 83.5 °F 83.9 °F 61.2 °F 47% 30.03 in 10.0 mi ENE 6.9 mph - N/A   Clear
1:35 PM 83.5 °F 83.6 °F 60.1 °F 45% 30.03 in 10.0 mi ENE 5.8 mph - N/A   Clear
1:55 PM 83.8 °F 83.8 °F 59.5 °F 44% 30.01 in 10.0 mi NE 6.9 mph - N/A   Clear
2:15 PM 84.7 °F 84.2 °F 58.5 °F 41% 30.01 in 10.0 mi ENE 4.6 mph - N/A   Clear
2:35 PM 86.9 °F 85.6 °F 57.2 °F 36% 29.99 in 10.0 mi NNE 6.9 mph - N/A   Clear
2:55 PM 87.3 °F 85.9 °F 56.8 °F 35% 29.98 in 10.0 mi ENE 5.8 mph - N/A   Clear
3:15 PM 86.9 °F 85.6 °F 57.2 °F 36% 29.98 in 10.0 mi North 9.2 mph - N/A   Clear
3:35 PM 83.8 °F 83.3 °F 57.6 °F 41% 29.97 in 10.0 mi North 9.2 mph - N/A   Clear
3:55 PM 84.6 °F 84.2 °F 58.8 °F 42% 29.97 in 10.0 mi NNE 8.1 mph - N/A   Clear
4:15 PM 84.4 °F 83.7 °F 57.6 °F 40% 29.96 in 10.0 mi NNE 6.9 mph - N/A   Clear
4:35 PM 84.6 °F 83.4 °F 55.9 °F 37% 29.96 in 10.0 mi North 8.1 mph - N/A   Clear
4:55 PM 82.9 °F 82.3 °F 56.3 °F 40% 29.95 in 10.0 mi North 8.1 mph - N/A   Clear
5:15 PM 81.9 °F 81.7 °F 57.0 °F 43% 29.96 in 10.0 mi NNE 5.8 mph - N/A   Clear
5:35 PM 81.0 °F 81.0 °F 57.4 °F 44% 29.96 in 10.0 mi NNE 6.9 mph - N/A   Clear
5:55 PM 80.2 °F 80.5 °F 57.4 °F 45% 29.96 in 10.0 mi North 4.6 mph - N/A   Clear
6:15 PM 79.0 °F - 58.8 °F 50% 29.96 in 5.0 mi North 3.5 mph - N/A   Haze
6:35 PM 76.5 °F - 60.8 °F 58% 29.97 in 10.0 mi North 3.5 mph - N/A   Clear
6:55 PM 74.3 °F - 61.5 °F 64% 29.97 in 10.0 mi North 4.6 mph - N/A   Clear
7:15 PM 72.1 °F - 61.2 °F 68% 29.97 in 10.0 mi North 3.5 mph - N/A   Clear
7:35 PM 71.1 °F - 61.7 °F 72% 29.98 in 10.0 mi Calm Calm - N/A   Clear
7:55 PM 70.3 °F - 61.7 °F 74% 29.98 in 10.0 mi Calm Calm - N/A   Clear
8:15 PM 69.1 °F - 62.8 °F 80% 29.99 in 10.0 mi Calm Calm - N/A   Clear
8:35 PM 68.9 °F - 63.0 °F 81% 29.99 in 10.0 mi Calm Calm - N/A   Clear
8:55 PM 67.6 °F - 62.2 °F 83% 30.00 in 10.0 mi North 3.5 mph - N/A   Clear
9:15 PM 67.1 °F - 62.4 °F 85% 30.01 in 10.0 mi North 3.5 mph - N/A   Clear
9:35 PM 67.3 °F - 62.2 °F 84% 30.01 in 10.0 mi North 3.5 mph - N/A   Clear
9:55 PM 66.9 °F - 62.1 °F 84% 30.01 in 10.0 mi Calm Calm - N/A   Clear
10:15 PM 66.6 °F - 62.2 °F 86% 30.01 in 10.0 mi Calm Calm - N/A   Clear
10:35 PM 66.2 °F - 62.6 °F 88% 30.01 in 10.0 mi Calm Calm - N/A   Clear
10:55 PM 65.7 °F - 64.2 °F 95% 30.00 in 10.0 mi North 4.6 mph - N/A   Clear
11:15 PM 64.2 °F - 64.2 °F 100% 30.01 in 10.0 mi Calm Calm - N/A   Clear
11:35 PM 64.2 °F - 64.2 °F 100% 30.00 in 10.0 mi Calm Calm - N/A   Clear
11:55 PM 64.0 °F - 64.0 °F 100% 30.00 in 10.0 mi Calm Calm - N/A   Clear